(276007) = 2001 YP49

Discovered at Socorro on 2001-12-18 by LINEAR.

Orbit

Orbit type: Main Belt

Note: WebGL enabled browser required.

epoch2024-03-31.0
epoch JD2460400.5
perihelion date2022-05-08.75809
perihelion JD2459708.25809
argument of perihelion (°)97.03985
ascending node (°)281.01945
inclination (°)9.48915
eccentricity0.1914225
perihelion distance (AU)2.1023987
Tisserand w.r.t. Jupiter3.4
ΔV w.r.t. Earth (km/sec)9.6
semimajor axis (AU)2.6001202
mean anomaly (°)162.73149
mean daily motion (°/day)0.23507890
aphelion distance (AU)3.098
period (years)4.19
P-vector [x]0.93740653
P-vector [y]0.21695549
P-vector [z]0.27239550
Q-vector [x]-0.30835511
Q-vector [y]0.88061468
Q-vector [z]0.35977064
absolute magnitude16.03
phase slope0.15
uncertainty0
referenceMPEC 2024-D35
observations used526
oppositions13
arc length (days)8131
first opposition used2001
last opposition used2024
residual rms (arc-secs)0.75
perturbers coarse indicatorM-v
perturbers precise indicator003Ek
first observation date used2001-11-11.0
last observation date used2024-02-15.0
computer nameMPCLINUX
JD of orbit computation2456700.193643
perihelion JD uncertainty (days)1.2545E-04
argument of perihelion uncertainty (°)5.0005E-05
ascending node uncertainty (°)3.7846E-05
inclination uncertainty (°)4.9528E-06
eccentricity uncertainty 1.5659E-07
perihelion distance uncertainty (AU)4.3753E-07
Minimum Orbit Intersection Distances (in AU)
for orbit epoch: 2460400.5, reference: E2024-G51
Mercury1.77037
Venus1.40225
Earth1.12994
Mars0.71619
Jupiter2.46872
Saturn6.43425
Uranus15.4557
Neptune27.5547

Observations

542 total observations over interval: 2001 11 11.37873 – 2024 02 15.569720
These data are available for download (format description).

Date (UT) J2000 RA J2000 Dec Magn Location Ref
2001 11 11.37873 06 16 48.27 +29 49 15.9 19.4   704 – Lincoln Laboratory ETS, New Mexico MPS 49805
2001 11 11.39336 06 16 47.96 +29 49 13.1 20.0   704 – Lincoln Laboratory ETS, New Mexico MPS 49805
2001 11 11.40799 06 16 47.62 +29 49 12.0 19.7   704 – Lincoln Laboratory ETS, New Mexico MPS 49805
2001 11 11.42263 06 16 47.23 +29 49 10.4 19.5   704 – Lincoln Laboratory ETS, New Mexico MPS 49805
2001 11 24.29737 06 09 28.40 +29 17 24.6 19.4   704 – Lincoln Laboratory ETS, New Mexico MPS 49805
2001 11 24.31209 06 09 27.53 +29 17 21.9 19.9   704 – Lincoln Laboratory ETS, New Mexico MPS 49805
2001 11 24.32683 06 09 26.93 +29 17 19.6 20.0   704 – Lincoln Laboratory ETS, New Mexico MPS 49805
2001 11 24.35625 06 09 25.43 +29 17 13.9 20.0   704 – Lincoln Laboratory ETS, New Mexico MPS 49805
2001 12 18.30329 05 44 42.56 +27 37 21.0 18.2   704 – Lincoln Laboratory ETS, New Mexico MPS 45482
2001 12 18.31852 05 44 41.49 +27 37 16.5 18.7   704 – Lincoln Laboratory ETS, New Mexico MPS 45482
2001 12 18.33374 05 44 40.43 +27 37 11.9 18.3   704 – Lincoln Laboratory ETS, New Mexico MPS 45482
2001 12 18.36421 05 44 38.31 +27 37 02.4 18.5   704 – Lincoln Laboratory ETS, New Mexico MPS 45482
2001 12 19.30345 05 43 34.90 +27 32 02.3 19.4   704 – Lincoln Laboratory ETS, New Mexico MPS 45482
2001 12 19.33387 05 43 32.61 +27 31 51.6 19.4   704 – Lincoln Laboratory ETS, New Mexico MPS 45482
2001 12 19.34913 05 43 31.59 +27 31 46.6 19.1   704 – Lincoln Laboratory ETS, New Mexico MPS 45482
2001 12 19.36477 05 43 30.51 +27 31 41.4 19.1   704 – Lincoln Laboratory ETS, New Mexico MPS 45482
2001 12 20.31026 05 42 26.76 +27 26 37.7 19.1   704 – Lincoln Laboratory ETS, New Mexico MPS 47092
2001 12 20.32548 05 42 25.73 +27 26 32.2 19.1   704 – Lincoln Laboratory ETS, New Mexico MPS 47092
2001 12 20.34052 05 42 24.66 +27 26 27.6 19.1   704 – Lincoln Laboratory ETS, New Mexico MPS 47092
2001 12 20.35614 05 42 23.57 +27 26 22.3 18.8   704 – Lincoln Laboratory ETS, New Mexico MPS 47092
2002 01 08.23004 05 24 21.94 +25 38 42.0 19.6   704 – Lincoln Laboratory ETS, New Mexico MPS 47092
2002 01 08.26031 05 24 20.53 +25 38 31.0 19.8   704 – Lincoln Laboratory ETS, New Mexico MPS 47092
2002 01 08.27543 05 24 19.85 +25 38 26.0 19.5   704 – Lincoln Laboratory ETS, New Mexico MPS 47092
2002 01 08.29055 05 24 19.09 +25 38 20.9 19.7   704 – Lincoln Laboratory ETS, New Mexico MPS 47092
2002 01 14.15487 05 20 37.11 +25 05 53.4 19.3   704 – Lincoln Laboratory ETS, New Mexico MPS 47092
2002 01 14.17009 05 20 36.62 +25 05 48.7 19.9   704 – Lincoln Laboratory ETS, New Mexico MPS 47092
2002 01 14.18532 05 20 36.07 +25 05 43.9 19.6   704 – Lincoln Laboratory ETS, New Mexico MPS 47092
2002 01 14.20055 05 20 35.57 +25 05 38.6 19.3   704 – Lincoln Laboratory ETS, New Mexico MPS 47092
2002 01 14.21577 05 20 35.03 +25 05 33.5 19.6   704 – Lincoln Laboratory ETS, New Mexico MPS 47092
2005 10 03.46476 03 50 39.67 +33 21 26.7 19.2 R 644 – Palomar Mountain/NEAT MPS 143792
2005 10 03.48114 03 50 39.74 +33 21 29.3 19.0 R 644 – Palomar Mountain/NEAT MPS 143792
2005 10 03.48613 03 50 39.78 +33 21 30.1 19.2 R 644 – Palomar Mountain/NEAT MPS 143792
2005 10 03.49258 03 50 39.81 +33 21 31.0 19.3 R 644 – Palomar Mountain/NEAT MPS 143792
2005 10 03.49930 03 50 39.81 +33 21 31.7 19.5 R 644 – Palomar Mountain/NEAT MPS 143792
2005 10 03.51450 03 50 39.90 +33 21 34.1 19.6 R 644 – Palomar Mountain/NEAT MPS 143792
2005 10 04.48233 03 50 45.27 +33 23 54.6 19.7 R 644 – Palomar Mountain/NEAT MPS 143792
2005 10 04.49570 03 50 45.29 +33 23 56.5 19.1 R 644 – Palomar Mountain/NEAT MPS 143792
2005 10 04.50762 03 50 45.32 +33 23 57.9 19.1 R 644 – Palomar Mountain/NEAT MPS 143792
2005 10 23.42484 03 45 22.26 +33 31 07.8 18.9 R 644 – Palomar Mountain/NEAT MPS 145982
2005 10 23.49297 03 45 19.52 +33 30 59.7 19.0 R 644 – Palomar Mountain/NEAT MPS 145982
2005 10 23.51845 03 45 18.52 +33 30 56.5 19.0 R 644 – Palomar Mountain/NEAT MPS 145982
2005 10 27.33095 03 42 42.50 +33 22 04.8 18.7 R 644 – Palomar Mountain/NEAT MPS 147391
2005 10 27.36936 03 42 40.68 +33 21 58.2 18.8 R 644 – Palomar Mountain/NEAT MPS 147391
2005 10 27.40820 03 42 38.84 +33 21 51.6 18.9 R 644 – Palomar Mountain/NEAT MPS 147391
2005 10 29.39075 03 41 07.26 +33 15 41.5 18.1 V 703 – Catalina Sky Survey MPS 147391
2005 10 29.39669 03 41 06.93 +33 15 38.9 17.9 V 703 – Catalina Sky Survey MPS 147391
2005 10 29.40259 03 41 06.68 +33 15 38.2 18.0 V 703 – Catalina Sky Survey MPS 147391
2005 10 29.40848 03 41 06.36 +33 15 37.7 18.2 V 703 – Catalina Sky Survey MPS 147391
2005 11 03.39449 03 36 50.66 +32 55 24.9 19.3   704 – Lincoln Laboratory ETS, New Mexico MPS 149394
2005 11 03.40661 03 36 50.01 +32 55 20.9 19.1   704 – Lincoln Laboratory ETS, New Mexico MPS 149394
2005 11 03.41887 03 36 49.37 +32 55 17.3 18.5   704 – Lincoln Laboratory ETS, New Mexico MPS 149394
2005 11 03.43104 03 36 48.68 +32 55 13.5 19.3   704 – Lincoln Laboratory ETS, New Mexico MPS 149394
2005 11 06.31558 03 34 07.95 +32 40 30.4 18.8   704 – Lincoln Laboratory ETS, New Mexico MPS 149394
2005 11 06.32977 03 34 07.09 +32 40 25.4 18.8   704 – Lincoln Laboratory ETS, New Mexico MPS 149394
2005 11 06.34283 03 34 06.36 +32 40 21.5 18.6   704 – Lincoln Laboratory ETS, New Mexico MPS 149394
2005 11 06.35511 03 34 05.53 +32 40 16.8 18.9   704 – Lincoln Laboratory ETS, New Mexico MPS 149394
2005 11 06.36771 03 34 04.87 +32 40 12.4 19.2   704 – Lincoln Laboratory ETS, New Mexico MPS 149394
2005 11 09.26405 03 31 16.95 +32 23 12.8 18.2   704 – Lincoln Laboratory ETS, New Mexico MPS 149394
2005 11 09.27673 03 31 16.12 +32 23 07.7 18.9   704 – Lincoln Laboratory ETS, New Mexico MPS 149394
2005 11 09.28964 03 31 15.32 +32 23 03.7 18.9   704 – Lincoln Laboratory ETS, New Mexico MPS 149394
2005 11 09.31472 03 31 13.78 +32 22 54.3 18.8   704 – Lincoln Laboratory ETS, New Mexico MPS 149394
2005 11 09.34440 03 31 11.97 +32 22 43.3 18.5   704 – Lincoln Laboratory ETS, New Mexico MPS 149394
2005 11 09.35694 03 31 11.15 +32 22 37.7 18.5   704 – Lincoln Laboratory ETS, New Mexico MPS 149394
2005 11 09.36947 03 31 10.45 +32 22 33.6 18.9   704 – Lincoln Laboratory ETS, New Mexico MPS 149394
2005 11 10.25955 03 30 18.14 +32 16 53.7 18.0 V 703 – Catalina Sky Survey MPS 149394
2005 11 10.26506 03 30 17.78 +32 16 52.1 18.2 V 703 – Catalina Sky Survey MPS 149394
2005 11 10.27059 03 30 17.42 +32 16 49.8 18.2 V 703 – Catalina Sky Survey MPS 149394
2005 11 10.27616 03 30 17.06 +32 16 47.4 18.3 V 703 – Catalina Sky Survey MPS 149394
2005 11 21.24248 03 19 28.38 +30 53 13.7 18.4 V 703 – Catalina Sky Survey MPS 150663
2005 11 21.25049 03 19 27.87 +30 53 09.4 17.9 V 703 – Catalina Sky Survey MPS 150663
2005 11 21.25845 03 19 27.37 +30 53 05.1 18.1 V 703 – Catalina Sky Survey MPS 150663
2005 11 21.26646 03 19 26.94 +30 53 00.9 18.1 V 703 – Catalina Sky Survey MPS 150663
2005 11 21.27543 03 19 26.45 +30 52 56.1 18.4 R 644 – Palomar Mountain/NEAT MPS 150663
2005 11 21.29748 03 19 25.09 +30 52 44.7 18.4 R 644 – Palomar Mountain/NEAT MPS 150663
2005 11 21.31763 03 19 23.90 +30 52 34.1 18.4 R 644 – Palomar Mountain/NEAT MPS 150663
2005 11 27.25866 03 14 02.37 +29 59 12.6 19.0   704 – Lincoln Laboratory ETS, New Mexico MPS 151965
2005 11 27.27187 03 14 01.69 +29 59 05.0 19.0   704 – Lincoln Laboratory ETS, New Mexico MPS 151965
2005 11 27.28449 03 14 01.01 +29 58 58.4 19.0   704 – Lincoln Laboratory ETS, New Mexico MPS 151965
2005 11 28.21629 03 13 14.49 +29 50 16.6 18.2 R 699 – Lowell Observatory-LONEOS MPS 151965
2005 11 28.23916 03 13 13.23 +29 50 03.9   699 – Lowell Observatory-LONEOS MPS 151965
2005 11 28.28490 03 13 10.92 +29 49 38.8   699 – Lowell Observatory-LONEOS MPS 151965
2005 11 28.29475 03 13 10.27 +29 49 33.3 18.4 V 703 – Catalina Sky Survey MPS 151965
2005 11 28.30014 03 13 10.05 +29 49 29.4 18.4 V 703 – Catalina Sky Survey MPS 151965
2005 11 28.30559 03 13 09.73 +29 49 26.1 17.8 V 703 – Catalina Sky Survey MPS 151965
2005 11 28.31102 03 13 09.48 +29 49 24.1 18.2 V 703 – Catalina Sky Survey MPS 151965
2005 12 01.29374 03 10 48.56 +29 21 17.1 18.6 R 644 – Palomar Mountain/NEAT MPS 153579
2005 12 01.31470 03 10 47.57 +29 21 05.1 18.6 R 644 – Palomar Mountain/NEAT MPS 153579
